DW9106 Madrid ES current weather conditions

sailwx.info

Wind from 057 at 2 knots gusting 5

Air temperature 12.8° C
Dewpoint 5.2° C

Last reported at 2016-Jun-01 06:43 UTC.
Time now 2016-Jun-01 07:24 UTC

Location: N 40°23' W 003°38'.
View on Google Maps.

See reports from other nearby stations

  
Tides and Currents Weather Stations Pressure Air Temp Water Temp Dewpoint Dewpoint Depression Visibility Wind Speed Wind Dir Waves Ship Positions
date/time (UTC)wind fromknots sea level pressurealtimeterstation pressurevisibilityair tempwater tempwave heightnotes
2016-Jun-01 06:43 057 2 gusting 5 12.8
2016-Jun-01 06:28 071 0 gusting 5 12.8
2016-Jun-01 06:13 032 3 gusting 6 12.8
2016-Jun-01 05:58 057 0 gusting 6 12.2
2016-Jun-01 05:43 048 1 gusting 6 12.2
2016-Jun-01 05:28 067 0 gusting 3 11.7
2016-Jun-01 05:13 067 1 gusting 6 11.7
2016-Jun-01 04:58 057 11.1
2016-Jun-01 04:43 042 0 gusting 4 11.7
2016-Jun-01 04:28 040 0 gusting 3 11.1
2016-Jun-01 04:13 065 11.7
2016-Jun-01 03:58 049 11.7
2016-Jun-01 03:43 043 2 gusting 5 11.7
2016-Jun-01 03:28 071 2 gusting 7 11.7
2016-Jun-01 03:13 062 3 gusting 7 12.2
2016-Jun-01 02:58 081 2 gusting 6 12.8
2016-Jun-01 02:43 051 3 gusting 7 13.3
2016-Jun-01 02:28 061 3 gusting 6 13.3
2016-Jun-01 02:13 032 2 gusting 6 13.9
2016-Jun-01 01:58 064 2 gusting 5 13.9
2016-Jun-01 01:43 042 3 gusting 6 13.9
2016-Jun-01 01:27 044 2 gusting 5 14.4
2016-Jun-01 01:12 038 3 gusting 7 14.4
2016-Jun-01 00:57 031 2 gusting 7 14.4
2016-Jun-01 00:42 036 4 gusting 6 14.4
2016-Jun-01 00:27 042 3 gusting 6 14.4
2016-Jun-01 00:12 028 2 gusting 6 14.4
2016-May-31 23:57 061 3 gusting 5 15.0
2016-May-31 23:42 064 3 gusting 7 15.0
2016-May-31 23:27 078 3 gusting 8 15.6
2016-May-31 23:12 053 3 gusting 6 16.7
2016-May-31 22:57 038 3 gusting 6 16.7
2016-May-31 22:42 292 2 gusting 6 17.2
2016-May-31 22:27 044 2 gusting 6 17.2
2016-May-31 22:12 056 2 gusting 9 17.2
2016-May-31 21:57 031 2 gusting 7 17.2
2016-May-31 21:42 063 3 gusting 7 17.8
2016-May-31 21:27 036 4 gusting 11 17.8
2016-May-31 21:12 050 5 gusting 11 17.8
2016-May-31 20:57 072 4 gusting 9 18.3
2016-May-31 20:42 026 5 gusting 9 18.3
2016-May-31 20:27 046 5 gusting 11 18.9
2016-May-31 20:12 041 3 gusting 10 18.9
2016-May-31 19:57 063 5 gusting 11 19.4
2016-May-31 19:42 049 4 gusting 8 20.0
2016-May-31 19:27 053 4 gusting 8 20.0
2016-May-31 19:12 069 2 gusting 7 20.6
2016-May-31 18:57 009 5 gusting 10 21.1
2016-May-31 18:42 051 2 gusting 5 21.7
2016-May-31 18:27 064 4 gusting 8 21.7
2016-May-31 18:12 044 3 gusting 8 22.2
2016-May-31 17:57 046 4 gusting 9 22.2
2016-May-31 17:42 069 3 gusting 13 22.2
2016-May-31 17:27 053 3 gusting 8 22.8
2016-May-31 17:12 053 3 gusting 8 22.8
2016-May-31 16:57 048 1 gusting 11 22.8
2016-May-31 16:42 194 0 gusting 10 23.3
2016-May-31 16:27 115 2 gusting 7 22.8
2016-May-31 16:12 040 5 gusting 9 22.8
2016-May-31 15:57 092 2 gusting 9 23.3
2016-May-31 15:42 062 0 gusting 5 22.8
2016-May-31 15:27 036 0 gusting 10 23.3
2016-May-31 15:12 051 1 gusting 6 23.9
2016-May-31 14:57 062 0 gusting 8 23.3
2016-May-31 14:42 038 4 gusting 6 23.3
2016-May-31 14:27 040 0 gusting 6 22.8
2016-May-31 14:12 057 3 gusting 8 22.2
2016-May-31 13:57 072 0 gusting 8 22.8
2016-May-31 13:42 048 0 gusting 9 21.7
2016-May-31 13:27 089 2 gusting 10 21.1
2016-May-31 13:12 074 6 gusting 10 21.1
2016-May-31 12:57 051 0 gusting 7 20.6
2016-May-31 12:42 057 5 gusting 9 21.1
2016-May-31 12:27 184 1 gusting 8 20.6
2016-May-31 12:11 040 1 gusting 9 20.6
2016-May-31 11:56 061 4 gusting 9 20.6
2016-May-31 11:41 079 4 gusting 6 20.6
2016-May-31 11:26 034 4 gusting 10 20.6
2016-May-31 11:11 061 2 gusting 8 20.0
2016-May-31 10:56 073 1 gusting 8 20.0
2016-May-31 10:41 049 2 gusting 6 20.0
2016-May-31 10:26 040 4 gusting 6 18.9
2016-May-31 10:11 039 4 gusting 7 18.9
2016-May-31 09:56 047 0 gusting 6 18.9
2016-May-31 09:41 045 2 gusting 8 18.3
2016-May-31 09:26 036 3 gusting 6 17.8
2016-May-31 09:11 058 1 gusting 9 17.2
2016-May-31 08:56 054 3 gusting 9 16.7
2016-May-31 08:41 024 2 gusting 8 16.1
2016-May-31 08:26 034 2 gusting 5 15.6
2016-May-31 08:11 074 3 gusting 6 15.0
2016-May-31 07:56 050 1 gusting 6 14.4
2016-May-31 07:41 054 3 gusting 6 14.4
2016-May-31 07:26 073 1 gusting 6 13.9
2016-May-31 07:11 069 3 gusting 7 13.9
2016-May-31 06:56 063 2 gusting 8 13.3
2016-May-31 06:41 019 2 gusting 6 12.8
2016-May-31 06:25 055 3 gusting 5 12.2
2016-May-31 06:10 043 0 gusting 6 12.2
2016-May-31 05:55 046 3 gusting 6 11.7
2016-May-31 05:40 044 2 gusting 6 11.1
2016-May-31 05:25 037 2 gusting 6 11.1
2016-May-31 05:10 069 2 gusting 6 11.1
2016-May-31 04:55 057 1 gusting 5 11.1
2016-May-31 04:40 049 0 gusting 5 11.1
2016-May-31 04:25 056 0 gusting 5 11.1
2016-May-31 04:10 049 3 gusting 7 11.1
2016-May-31 03:55 044 1 gusting 4 11.1
2016-May-31 03:40 105 0 gusting 3 11.1
2016-May-31 03:25 050 11.1
2016-May-31 03:10 047 11.7
2016-May-31 02:55 047 11.7
2016-May-31 02:40 044 0 gusting 3 11.7
2016-May-31 02:25 022 11.7
2016-May-31 02:10 022 12.2
2016-May-31 01:55 044 2 gusting 6 12.8
2016-May-31 01:40 036 3 gusting 7 12.8
2016-May-31 01:25 040 2 gusting 7 12.8
2016-May-31 01:10 067 5 gusting 8 13.3
2016-May-31 00:55 044 4 gusting 9 13.3
2016-May-31 00:40 033 4 gusting 7 13.3
2016-May-31 00:25 051 3 gusting 7 13.9
2016-May-31 00:10 048 4 gusting 7 13.9
2016-May-30 23:55 046 2 gusting 6 14.4
2016-May-30 23:40 053 4 gusting 7 14.4
2016-May-30 23:25 056 2 gusting 6 14.4
2016-May-30 23:10 062 2 gusting 6 14.4
2016-May-30 22:55 030 3 gusting 8 15.0
2016-May-30 22:39 057 4 gusting 8 15.6
2016-May-30 22:24 054 3 gusting 6 15.6
2016-May-30 22:09 053 1 gusting 6 16.1
2016-May-30 21:54 044 16.1
2016-May-30 21:39 063 16.7
2016-May-30 21:24 068 0 gusting 4 16.7
2016-May-30 21:09 055 16.7
2016-May-30 20:54 061 0 gusting 3 17.2
2016-May-30 20:39 073 0 gusting 5 17.2
2016-May-30 20:24 049 2 gusting 5 17.8
2016-May-30 20:09 033 0 gusting 3 17.8
2016-May-30 19:54 043 17.8
2016-May-30 19:39 057 18.3
2016-May-30 19:24 190 18.9
2016-May-30 19:09 297 1 gusting 5 19.4
2016-May-30 18:54 265 0 gusting 6 20.0
2016-May-30 18:39 318 2 gusting 6 20.6
2016-May-30 18:24 211 0 gusting 6 20.6
2016-May-30 18:09 232 2 gusting 9 20.6
2016-May-30 17:54 236 1 gusting 6 21.1
2016-May-30 17:39 054 0 gusting 6 21.1
2016-May-30 17:24 213 2 gusting 8 21.1
2016-May-30 17:09 069 21.7
2016-May-30 16:54 236 21.7
2016-May-30 16:39 253 0 gusting 9 21.1
2016-May-30 16:24 157 1 gusting 6 21.7
2016-May-30 16:09 032 1 gusting 6 21.7
2016-May-30 15:54 339 0 gusting 8 20.6
2016-May-30 15:39 250 1 gusting 6 21.1
2016-May-30 15:24 224 2 gusting 6 22.2
2016-May-30 15:09 219 0 gusting 5 21.1
2016-May-30 14:54 062 1 gusting 6 21.1
2016-May-30 14:39 218 1 gusting 12 20.0
2016-May-30 14:24 250 1 gusting 11 20.6
2016-May-30 14:09 234 1 gusting 7 20.6
2016-May-30 13:54 290 2 gusting 8 20.0
2016-May-30 13:39 334 0 gusting 6 20.0
2016-May-30 13:24 128 0 gusting 8 19.4
2016-May-30 13:09 280 2 gusting 7 19.4
2016-May-30 12:54 338 1 gusting 6 19.4
2016-May-30 12:39 186 1 gusting 8 19.4
2016-May-30 12:24 305 2 gusting 6 20.0
2016-May-30 12:09 203 1 gusting 4 19.4
2016-May-30 11:54 281 2 gusting 7 18.9
2016-May-30 11:39 250 2 gusting 8 18.9
2016-May-30 11:24 057 0 gusting 6 18.3
2016-May-30 11:09 232 0 gusting 9 17.8
2016-May-30 10:54 252 0 gusting 4 17.8
2016-May-30 10:39 237 17.2
2016-May-30 10:24 263 0 gusting 3 17.8
2016-May-30 10:09 278 0 gusting 4 17.8
2016-May-30 09:54 148 1 gusting 6 18.3
2016-May-30 09:38 175 1 gusting 5 17.8
2016-May-30 09:23 257 0 gusting 6 16.7
2016-May-30 09:08 227 0 gusting 6 16.7
2016-May-30 08:53 211 16.7
2016-May-30 08:38 182 1 gusting 4 16.7
2016-May-30 08:23 184 16.1
2016-May-30 08:08 225 0 gusting 5 15.6
2016-May-30 07:53 169 0 gusting 3 15.0
2016-May-30 07:38 119 14.4
2016-May-30 07:23 160 14.4
2016-May-30 07:08 175 13.9